Regional Weather Roundup
Issued by NWS

Home | Current Version | Previous Version | Text Only | Print | Product List | Glossary Off
Versions: 1 2 3 4 5 6 7 8 9 10 11 12 13 14 15 16 17 18 19 20 21 22 23 24 25 26 27 28 29 30 31 32 33 34 35 36 37 38 39 40 41 42 43 44 45 46 47 48 49 50

000
ASUS45 KCYS 252210
RWRWY

WYOMING REGIONAL WEATHER ROUNDUP
NATIONAL WEATHER SERVICE CHEYENNE WY
400 PM MDT WED MAY 25 2016

NOTE:  "FAIR" INDICATES FEW OR NO CLOUDS BELOW 12,000 FEET
WITH NO SIGNIFICANT WEATHER AND/OR OBSTRUCTIONS TO VISIBILITY.

WYZ001-252300-
YELLOWSTONE NATIONAL PARK

CITY           SKY/WX    TMP DP  RH WIND       PRES   REMARKS
LK YELLOWSTONE   N/A     41  36  82 VRB6G17   30.09S
W YELLOWSTONE  NOT AVBL

$$
WYZ002>013-054>058-071-098>099-252300-
NORTHERN WYOMING

CITY           SKY/WX    TMP DP  RH WIND       PRES   REMARKS
JACKSON        PTSUNNY   54  37  54 S14       30.03S
CODY           PTSUNNY   57  41  54 N14       29.93R
GREYBULL       FAIR      61  47  59 E12       29.90F
WORLAND        FAIR      62  43  49 MISG      29.91F
SHERIDAN       CLOUDY    54  48  80 S5        29.92F
BUFFALO        LGT RAIN  52  44  74 NW8       29.96S
GILLETTE       CLOUDY    57  42  57 NW22G28   29.93R
HULETT         CLOUDY    63  41  45 W9        29.91S
NEWCASTLE      FAIR      64  36  34 NW10G17   29.91S

$$
WYZ014>020-022>026-101>103-252300-
CENTRAL WYOMING

CITY           SKY/WX    TMP DP  RH WIND       PRES   REMARKS
BIG PINEY      LGT RAIN  49  38  65 N6        30.05F
PINEDALE       MOCLDY    52  36  54 CALM      30.05F
DUBOIS         MOCLDY    54  32  43 N17G24    30.00R
LANDER         FAIR      64  29  26 VRB5      29.91F
RIVERTON       FAIR      58  40  51 S7        29.94F
CASPER         PTSUNNY   61  39  44 W9G18     29.92F
DOUGLAS          N/A     61  38  42 SW21      29.94S

$$
WYZ021-027>030-104>119-252300-
SOUTHERN WYOMING

CITY           SKY/WX    TMP DP  RH WIND       PRES   REMARKS
EVANSTON       FAIR      55  35  47 W17       30.08S
KEMMERER         N/A     54  34  47 SW15      30.08F
FORT BRIDGER   PTCLDY    54  36  50 NW14      30.09F THUNDER
ROCK SPRINGS   CLOUDY    47  36  65 S22       30.06F
DIXON          FAIR      65  24  21 W22       30.05S
RAWLINS        PTSUNNY   53  31  42 W20G36    30.04R
SARATOGA       FAIR      61  21  21 SW18      30.04F
LARAMIE        FAIR      61  24  24 W18G24    30.03F
CHEYENNE       CLOUDY    62  39  42 S14       29.97F
TORRINGTON     FAIR      74  28  18 W22G31    29.89S
PINE BLUFFS    FAIR      64  34  32 S3        29.98F

$$



USA.gov is the U.S. government's official web portal to all federal, state and local government web resources and services.